[[{"header":{"parameterUnit":"m.s-1","parameterCategory":1,"la1":30.2991,"la2":30.254,"lo1":-89.0895,"lo2":-89.0444,"dy":0.0017,"dx":0.0017,"nx":28,"ny":28,"refTime":"2024-02-11T03:00:00:Z","depth":0,"parameterNumber":2,"parameterNumberName":"U-component_of_WINDS"},"data":[0,0,0,0,0,0,0,0,0,0,0,0,0,0,0,0,0,0,0,0,0,0,0,0,0,0,0,0,0,0,0,0,0,0,0,0,0,0,0,0,0,0,0,0,0,0,0,0,0,0,0,0,0,0,0,0,0,0,4.3186,4.3183,0,4.2931,4.2928,4.2925,4.27,4.2697,4.2695,4.2692,4.2436,4.2432,4.2427,0,0,0,0,0,0,0,0,0,0,0,0,0,4.3484,4.348,4.3186,4.3183,4.318,4.2931,4.2928,4.2924,4.2701,4.2697,4.2694,4.2691,4.2437,4.2432,4.2427,0,0,0,0,0,0,0,0,0,0,0,0,0,4.3305,4.3479,4.3186,4.3038,4.3022,4.2932,4.2928,4.2924,4.2701,4.2697,4.2693,4.269,4.2439,4.2433,4.2426,4.2465,0,0,4.2406,4.2403,0,0,0,0,0,0,0,0,4.3316,4.3294,4.3063,4.3048,4.303,4.2843,4.2939,4.277,4.2702,4.2823,4.2692,4.2688,4.2575,4.2557,4.2518,4.2453,4.2442,4.2406,4.2402,4.2399,4.2397,0,0,0,0,0,0,0,4.3328,4.3304,4.3085,4.306,4.304,4.2986,4.2956,4.2906,4.2724,4.2812,4.2795,4.2768,4.2565,4.2525,4.251,4.2438,4.2406,4.24,4.2396,4.2393,4.2394,4.2398,0,0,0,0,0,0,4.3363,4.3316,4.3093,4.3077,4.3166,4.2984,4.295,4.2907,4.2724,4.2692,4.2772,4.2758,4.2538,4.2518,4.25,4.2535,4.2399,4.2393,4.2389,4.239,4.2395,4.2399,0,0,0,0,0,0,4.337,4.3345,4.3103,4.3192,4.3157,4.2983,4.2936,4.2904,4.2863,4.2693,4.2661,4.2763,4.2534,4.251,4.2475,4.2523,4.239,4.2384,4.2386,4.2392,4.2397,4.2604,0,0,0,0,0,0,4.338,4.3349,4.336,4.3194,4.3153,4.3082,4.2939,4.2902,4.2852,4.2833,4.2677,4.2647,4.2529,4.2487,4.2469,4.2511,4.2379,4.238,4.2388,4.2395,4.2592,4.2616,4.2636,0,0,0,0,0,4.3391,4.3429,4.3362,4.3336,4.3163,4.3085,4.3061,4.2923,4.2857,4.2868,4.2759,4.2652,4.2521,4.2485,4.2463,4.2504,4.2377,4.2386,4.2395,4.2582,4.2611,4.2636,0,0,0,0,0,0,4.3606,4.3404,4.3328,4.3312,4.3217,4.3047,4.3056,4.2958,4.2881,4.2866,4.27,4.2666,4.2652,4.2574,4.2538,4.2533,4.2435,4.244,4.2584,4.2611,4.2633,4.2652,4.2373,0,0,0,0,0,4.3651,4.3603,4.3429,4.3433,4.3389,4.3232,4.3192,4.3094,4.299,4.2949,4.2837,4.2741,4.2678,4.264,4.2572,4.258,4.2544,4.2598,4.262,4.2639,4.2646,4.2646,4.2669,4.2429,4.2428,4.2428,0,0,4.3745,4.3629,4.3608,4.3473,4.3388,4.3344,4.3199,4.3157,4.3124,4.2942,4.2903,4.2819,4.2701,4.2689,4.2678,4.2624,4.2704,4.2651,4.2667,4.2663,4.2658,4.2681,4.2701,4.2435,4.2433,4.2433,0,0,4.3893,4.3799,4.3792,4.3711,4.3583,4.3479,4.3478,4.3322,4.3259,4.3217,4.3081,4.304,4.2934,4.2856,4.2803,4.2926,4.2825,4.2908,4.3025,4.3028,4.3047,4.3063,4.3108,4.3127,4.2915,4.2916,4.2916,0,4.4025,4.3951,4.3802,4.3769,4.3715,4.3549,4.3543,4.3471,4.3329,4.3297,4.3238,4.3104,4.3012,4.2981,4.3011,4.2973,4.2968,4.2925,4.3056,4.307,4.3083,4.3125,4.3142,4.2927,4.2926,4.2925,4.2923,0,4.4122,4.4073,4.4083,4.395,4.3897,4.3878,4.3729,4.3693,4.3601,4.3504,4.3466,4.3351,4.3258,4.3243,4.3152,4.32,4.317,4.3087,4.2984,4.312,4.3156,4.3171,4.2943,4.2939,4.2935,4.2933,0,0,4.4396,4.4182,4.4189,4.4127,4.3977,4.3937,4.3912,4.382,4.3795,4.3704,4.368,4.3596,4.3518,4.3458,4.3357,4.336,4.3467,4.3275,4.327,4.3316,4.3514,4.3579,4.36,4.34,4.3402,4.3404,4.3525,0,4.452,4.4463,4.433,4.4316,4.427,4.4114,4.4092,4.3999,4.3908,4.3858,4.3758,4.3702,4.3602,4.3565,4.356,4.3455,4.3505,4.3444,4.3378,4.3378,4.3413,4.3618,4.3686,4.3805,4.3538,4.354,4.3542,0,4.4656,4.4575,4.4557,4.441,4.4386,4.4369,4.4276,4.4229,4.4122,4.4056,4.3991,4.388,4.3848,4.3754,4.3708,4.367,4.3635,4.358,4.3582,4.357,4.3468,4.3614,4.384,4.3859,4.3562,4.3561,4.3559,0,4.4861,4.4746,4.4721,4.4673,4.4502,4.4494,4.4423,4.431,4.4265,4.4185,4.4154,4.4072,4.4027,4.3967,4.3838,4.3781,4.3808,4.3702,4.3754,4.3758,4.3767,4.3768,4.3991,4.3744,4.3744,4.3744,4.3743,0,4.5013,4.5009,4.4811,4.4795,4.4787,4.4635,4.4631,4.4545,4.4447,4.4414,4.4274,4.4246,4.4077,4.4031,4.393,4.3909,4.389,4.3837,4.3811,4.385,4.3857,4.3825,4.3814,4.3748,4.3747,4.3746,4.3745,0,4.524,4.5106,4.5069,4.491,4.487,4.4871,4.4736,4.4717,4.4619,4.4579,4.4561,4.4407,4.4346,4.4211,4.4113,4.4046,4.405,4.4002,4.4087,4.407,4.413,4.4127,4.4341,4.4362,4.4102,4.4105,4.4107,0,4.5346,4.5339,4.518,4.5147,4.5082,4.5031,4.4984,4.4835,4.4793,4.4671,4.4668,4.4595,4.4528,4.4438,4.4319,4.4244,4.4193,4.4274,4.4181,4.4222,4.4196,4.4199,4.4198,4.4295,4.4298,4.4301,4.4303,0,4.555,4.5485,4.5422,4.5338,4.5286,4.5212,4.5131,4.5113,4.4946,4.4906,4.484,4.479,4.469,4.4621,4.4528,4.4456,4.4354,4.4334,4.4342,4.4382,4.4432,4.4408,4.4144,4.4329,4.4327,4.4325,4.4323,4.4322,4.572,4.5707,4.5594,4.553,4.5453,4.5382,4.5356,4.5255,4.5198,4.5105,4.5021,4.4965,4.486,4.4725,4.4661,4.4616,4.4564,4.4576,4.4579,4.4584,4.4602,4.444,4.4598,4.4597,4.4597,4.4596,4.4595,0,4.5918,4.5838,4.578,4.5672,4.5622,4.5528,4.5435,4.54,4.5352,4.5262,4.52,4.5127,4.506,4.4936,4.4859,4.4847,4.4798,4.4832,4.4831,4.4817,4.4652,4.4653,4.4873,4.4873,4.4873,4.4873,4.4873,4.4873,4.6015,4.599,4.5912,4.5849,4.5768,4.5711,4.5666,4.56,4.5528,4.5452,4.5395,4.5315,4.5212,4.5127,4.5062,4.5027,4.5006,4.5055,4.5006,4.4854,4.4828,4.4803,4.4804,4.5052,4.5052,4.5175,4.5176,4.5177]},{"header":{"parameterUnit":"m.s-1","parameterCategory":1,"la1":30.2991,"la2":30.254,"lo1":-89.0895,"lo2":-89.0444,"dy":0.0017,"dx":0.0017,"nx":28,"ny":28,"refTime":"2024-02-11T03:00:00:Z","depth":0,"parameterNumber":3,"parameterNumberName":"V-component_of_WINDS"},"data":[0,0,0,0,0,0,0,0,0,0,0,0,0,0,0,0,0,0,0,0,0,0,0,0,0,0,0,0,0,0,0,0,0,0,0,0,0,0,0,0,0,0,0,0,0,0,0,0,0,0,0,0,0,0,0,0,0,0,2.499,2.4994,0,2.5404,2.5409,2.5414,2.5551,2.5549,2.5547,2.5546,2.5971,2.5984,2.5997,0,0,0,0,0,0,0,0,0,0,0,0,0,2.4318,2.4329,2.4989,2.4995,2.5,2.5403,2.5409,2.5415,2.5551,2.5549,2.5547,2.5545,2.5967,2.5982,2.5998,0,0,0,0,0,0,0,0,0,0,0,0,0,2.4658,2.4333,2.4988,2.5117,2.5132,2.5402,2.5409,2.5416,2.5552,2.5549,2.5546,2.5544,2.5962,2.5981,2.6,2.6173,0,0,2.6059,2.6068,0,0,0,0,0,0,0,0,2.4639,2.4683,2.5093,2.5108,2.5126,2.5423,2.5328,2.567,2.5552,2.5392,2.5546,2.5543,2.5791,2.5824,2.5908,2.6193,2.6211,2.6061,2.6073,2.6081,2.6087,0,0,0,0,0,0,0,2.4615,2.4666,2.5154,2.5098,2.5119,2.5154,2.5199,2.5394,2.5602,2.5406,2.5417,2.5464,2.58,2.5889,2.5919,2.6217,2.6061,2.6078,2.609,2.6097,2.6668,2.6671,0,0,0,0,0,0,2.457,2.4645,2.514,2.5166,2.4871,2.5168,2.5219,2.533,2.56,2.5638,2.5466,2.5469,2.5857,2.5896,2.5934,2.6157,2.6081,2.6099,2.6111,2.6664,2.6668,2.6672,0,0,0,0,0,0,2.4555,2.4613,2.5124,2.4909,2.4977,2.5182,2.5307,2.534,2.543,2.5645,2.5683,2.5519,2.5856,2.5907,2.6113,2.6174,2.6108,2.6126,2.666,2.6665,2.667,2.6601,0,0,0,0,0,0,2.4535,2.4606,2.4674,2.4909,2.4987,2.5295,2.531,2.535,2.5463,2.547,2.5705,2.5741,2.5858,2.6083,2.6132,2.6199,2.6141,2.6656,2.6662,2.6669,2.6599,2.6604,2.6607,0,0,0,0,0,2.451,2.4638,2.4677,2.4736,2.5076,2.5298,2.5343,2.5475,2.5467,2.5537,2.5676,2.5734,2.6158,2.6103,2.616,2.6233,2.6652,2.666,2.6668,2.6598,2.6603,2.6607,0,0,0,0,0,0,2.4405,2.4671,2.4717,2.4924,2.5087,2.5321,2.5413,2.5476,2.5645,2.5645,2.5802,2.5854,2.6048,2.6161,2.6095,2.6416,2.6408,2.6428,2.6335,2.6342,2.6346,2.6316,2.6157,0,0,0,0,0,2.4405,2.4562,2.4787,2.4948,2.5028,2.5206,2.5307,2.5395,2.557,2.564,2.5794,2.5962,2.6134,2.6244,2.6414,2.6615,2.667,2.6694,2.6698,2.67,2.6716,2.6833,2.6847,2.6698,2.6698,2.6697,0,0,2.4408,2.4573,2.4663,2.4931,2.5068,2.5228,2.5263,2.5431,2.5552,2.5666,2.5871,2.5989,2.6187,2.6392,2.649,2.6492,2.6769,2.671,2.671,2.6725,2.6842,2.6856,2.6869,2.6703,2.6702,2.6701,0,0,2.4497,2.4636,2.4787,2.4923,2.513,2.5248,2.5283,2.5508,2.5591,2.5799,2.5888,2.6034,2.6326,2.6464,2.6573,2.6713,2.6774,2.6764,2.6786,2.6898,2.691,2.6921,2.6974,2.699,2.6778,2.6778,2.6778,0,2.4475,2.472,2.4856,2.5021,2.5137,2.5246,2.5401,2.5527,2.5778,2.5856,2.5854,2.6224,2.6365,2.6605,2.6639,2.6722,2.6769,2.6739,2.6897,2.691,2.6922,2.6974,2.6993,2.6776,2.6776,2.6776,2.6777,0,2.4684,2.4852,2.4949,2.5189,2.5316,2.5474,2.5635,2.5747,2.5823,2.5941,2.6152,2.6325,2.6532,2.6595,2.6671,2.6846,2.6842,2.6866,2.6863,2.6932,2.6983,2.7004,2.6772,2.6773,2.6774,2.6775,0,0,2.4718,2.5032,2.5065,2.5177,2.5412,2.5546,2.5709,2.5912,2.6006,2.6175,2.6317,2.6561,2.6586,2.6709,2.6801,2.6899,2.7002,2.6913,2.692,2.6926,2.7209,2.719,2.7211,2.7043,2.7047,2.7051,2.7193,0,2.4838,2.5135,2.5264,2.5502,2.5661,2.5767,2.591,2.607,2.6184,2.6336,2.6462,2.6634,2.6653,2.6728,2.683,2.6968,2.7062,2.6959,2.7178,2.7185,2.7128,2.7238,2.7219,2.7345,2.7214,2.7217,2.722,0,2.5019,2.519,2.5444,2.5662,2.5734,2.5859,2.6057,2.6199,2.6384,2.646,2.6597,2.6685,2.6862,2.6843,2.709,2.7017,2.7114,2.7196,2.7204,2.7231,2.7208,2.727,2.7388,2.7408,2.7252,2.725,2.7247,0,2.5021,2.5314,2.5505,2.5596,2.5855,2.5942,2.6053,2.6235,2.6349,2.6521,2.6597,2.6787,2.6892,2.7037,2.7174,2.7148,2.7408,2.7401,2.7478,2.7475,2.753,2.7525,2.7667,2.7588,2.7587,2.7587,2.7586,0,2.5144,2.5296,2.551,2.5627,2.5801,2.5947,2.6115,2.6234,2.6395,2.6538,2.6641,2.6774,2.6945,2.71,2.7208,2.7397,2.7442,2.751,2.7538,2.7503,2.7494,2.757,2.7566,2.7592,2.7591,2.759,2.7589,0,2.5176,2.5325,2.5541,2.5768,2.5829,2.5947,2.6142,2.6261,2.638,2.656,2.661,2.6798,2.6985,2.7135,2.7379,2.7452,2.7651,2.768,2.7589,2.7604,2.7673,2.7665,2.7871,2.7906,2.7799,2.78,2.7801,0,2.5246,2.5365,2.5606,2.5709,2.582,2.5985,2.6102,2.625,2.6368,2.6587,2.668,2.6874,2.7038,2.7332,2.749,2.7678,2.7714,2.7773,2.7743,2.7705,2.7718,2.771,2.7724,2.7777,2.7777,2.7778,2.7778,0,2.5354,2.5422,2.5587,2.5778,2.5915,2.6073,2.6233,2.6312,2.6489,2.6617,2.681,2.6936,2.7186,2.7379,2.7583,2.7699,2.7769,2.7786,2.7814,2.7781,2.7724,2.7758,2.76,2.7781,2.7781,2.7781,2.7781,2.778,2.5409,2.5521,2.5708,2.5889,2.6025,2.6172,2.6296,2.643,2.6593,2.6809,2.6886,2.7084,2.7267,2.7549,2.7666,2.7824,2.783,2.787,2.7881,2.7889,2.7886,2.7696,2.7861,2.7861,2.7862,2.7862,2.7862,0,2.5524,2.565,2.5815,2.6036,2.6178,2.6231,2.6411,2.6527,2.67,2.6865,2.7024,2.7246,2.7433,2.7606,2.7802,2.7895,2.7932,2.7941,2.7937,2.7964,2.7868,2.7825,2.7908,2.7908,2.7908,2.7908,2.7908,2.7908,2.5601,2.5794,2.5884,2.6146,2.6271,2.6467,2.6565,2.6702,2.6835,2.7078,2.7234,2.7345,2.7514,2.7723,2.7898,2.7944,2.8012,2.8014,2.8068,2.7976,2.797,2.7964,2.7924,2.8027,2.8027,2.8151,2.8152,2.8153]}]]